• MPC Preparation (Info)

  • MPEC 2014-A09 : 2013 YV102

    The following Minor Planet Electronic Circular may be linked-to from your own Web pages, but must not otherwise be redistributed electronically.

    A form allowing access to any MPEC is at the bottom of this page.


    Read MPEC 2014-A08 Read MPEC 2014-A10


    M.P.E.C. 2014-A09                                Issued 2014 Jan. 2, 21:27 UT
    
         The Minor Planet Electronic Circulars contain information on unusual
             minor planets and routine data on comets.  They are published
       on behalf of Commission 20 of the International Astronomical Union by the
              Minor Planet Center, Smithsonian Astrophysical Observatory,
                              Cambridge, MA 02138, U.S.A.
    
                 Prepared using the Tamkin Foundation Computer Network
    
                                  MPC@CFA.HARVARD.EDU
                URL https://www.minorplanetcenter.net/    ISSN 1523-6714
    
                                      2013 YV102
    
    Observations:
         K13YA2V* C2013 12 31.33982 07 55 28.93 +32 30 33.8          20.3 VqEA009G96
         K13YA2V  C2013 12 31.34926 07 55 32.60 +32 31 33.0          20.3 VqEA009G96
         K13YA2V  C2013 12 31.35868 07 55 36.31 +32 32 32.4          20.4 VqEA009G96
         K13YA2V  C2013 12 31.36811 07 55 39.99 +32 33 30.7          20.3 VqEA009G96
         K13YA2V  C2013 12 31.40323 07 55 53.92 +32 37 09.2          20.6 VqEA009G96
         K13YA2V  C2013 12 31.40763 07 55 55.69 +32 37 36.8          20.4 VqEA009G96
         K13YA2V  C2013 12 31.40983 07 55 56.58 +32 37 50.4          20.3 VqEA009G96
         K13YA2V KC2013 12 31.44991 07 56 11.41 +32 41 31.9          19.8 RqEA009H36
         K13YA2V KC2013 12 31.45118 07 56 13.51 +32 42 07.6          20.1 RoEA009291
         K13YA2V KC2013 12 31.45178 07 56 13.75 +32 42 11.4          19.9 RoEA009291
         K13YA2V KC2013 12 31.45241 07 56 14.02 +32 42 15.2          20.0 RoEA009291
         K13YA2V KC2013 12 31.47322 07 56 21.52 +32 43 53.5          19.8 RqEA009H36
         K13YA2V KC2013 12 31.48284 07 56 25.60 +32 44 51.9          18.8 RqEA009H36
         K13YA2V  C2013 12 31.95493 08 00 37.20 +33 38 41.6          19.8 VoEA009033
         K13YA2V  C2013 12 31.96456 08 00 41.94 +33 39 51.4          19.8 VoEA009033
         K13YA2V  C2013 12 31.98346 08 00 51.56 +33 42 13.3          19.7 VoEA009033
         K13YA2V  C2013 12 31.98989 08 00 54.76 +33 42 59.9          19.7 VoEA009033
         K13YA2V  C2014 01 01.28501 08 03 51.06 +34 21 26.5          20.0 VqEA009G96
         K13YA2V  C2014 01 01.29028 08 03 53.99 +34 22 09.8          20.5 VqEA009G96
         K13YA2V  C2014 01 01.29562 08 03 56.93 +34 22 53.9          20.3 VqEA009G96
         K13YA2V  C2014 01 01.30094 08 03 59.89 +34 23 37.3          20.0 VqEA009G96
         K13YA2V KC2014 01 01.35712 08 04 30.29 +34 31 18.1          20.3 RqEA009448
         K13YA2V KC2014 01 01.36928108 04 33.71 +34 32 29.6          20.5 VuEA009H21
         K13YA2V KC2014 01 01.37477608 04 36.88 +34 33 13.2          20.5 VuEA009H21
         K13YA2V KC2014 01 01.38017208 04 39.95 +34 33 56.4          20.5 VuEA009H21
         K13YA2V KC2014 01 01.38600 08 04 46.52 +34 35 12.6          19.9 RqEA009448
         K13YA2V KC2014 01 01.41223 08 04 59.94 +34 38 20.2          19.6 RqEA009H36
         K13YA2V KC2014 01 01.41415 08 05 02.57 +34 39 00.9          19.8 RqEA009448
         K13YA2V KC2014 01 01.42684 08 05 08.55 +34 40 16.3          20.7 RqEA009H36
         K13YA2V KC2014 01 01.43145 08 05 11.24 +34 40 54.3          19.5 RqEA009H36
         K13YA2V  C2014 01 02.39445 08 17 51.82 +37 16 00.0          20.0 VqEA009G96
         K13YA2V  C2014 01 02.40056 08 17 57.10 +37 17 07.3          20.0 VqEA009G96
    
    Observer details:
    033 Karl Schwarzschild Observatory, Tautenburg.  Observer B. Stecklum.  1.34-m
        f/4 Schmidt + CCD.
    291 LPL/Spacewatch II.  Observers T. H. Bressi, R. A. Mastaler.  1.8-m f/2.7
        reflector + CCD.
    448 Desert Moon Observatory.  Observer B. L. Stevens.  0.3-m
        Schmidt-Cassegrain + CCD.
    G96 Mt. Lemmon Survey.  Observers R. A. Kowalski, E. J. Christensen.
        Measurers A. Boattini, E. J. Christensen, A. R. Gibbs, A. D. Grauer,
        R. E. Hill, J. A. Johnson, R. A. Kowalski, S. M. Larson, F. C. Shelly.
        1.5-m reflector + CCD.
    H21 Astronomical Research Observatory, Westfield.  Observer R. Holmes.
        Measurers T. Linder, S. Foglia, L. Buzzi, T. Vorobjov.  0.61-m f/4.5
        astrograph + CCD.
    H36 Sandlot Observatory, Scranton.  Observer G. Hug.  0.56-m reflector + CCD.
    
    Orbital elements:
    2013 YV102                                               Earth MOID = 0.0131 AU
    Epoch 2013 Nov. 4.0 TT = JDT 2456600.5                  MPC
    M 284.91615              (2000.0)            P               Q
    n   0.64075527     Peri.  112.88593     -0.97392169     +0.22454035
    a   1.3325226      Node    80.10221     -0.21838376     -0.88886813
    e   0.4856896      Incl.    1.89232     -0.06152303     -0.39936836
    P   1.54           H   25.5           G   0.15           U   8
    Residuals in seconds of arc
    131231 G96  0.4+  0.5-    131231 H36  0.4+  0.3-    140101 H21  1.1-  0.1-
    131231 G96  0.1+  0.4-    131231 H36  1.3-  0.6-    140101 H21  0.9-  0.3-
    131231 G96  0.3+  0.1+    131231 033  0.6+  1.4+    140101 H21  1.4-  0.2-
    131231 G96  0.0   0.4-    131231 033  0.8-  0.3-    140101 448  0.7+  0.2-
    131231 G96  0.0   0.3-    131231 033  0.2+  1.2+    140101 H36  0.7+  0.1+
    131231 G96  0.0   0.1+    131231 033  0.4-  0.0     140101 448  0.7+  0.0
    131231 G96  0.1+  0.0     140101 G96  0.2-  0.1+    140101 H36  0.9+  1.0-
    131231 H36  0.3-  0.1+    140101 G96  0.0   0.0     140101 H36  0.3+  0.0
    131231 291  0.1+  0.2+    140101 G96  0.2-  0.2+    140102 G96  0.0   0.0
    131231 291  0.0   0.3+    140101 G96  0.1+  0.1-    140102 G96  0.0   0.1+
    131231 291  0.1+  0.2+    140101 448  0.6+  0.0
    
    Ephemeris:
    2013 YV102               a,e,i = 1.33, 0.49, 2                   q = 0.6853
    Date    TT    R. A. (2000) Decl.     Delta      r     Elong.  Phase     V
    2013 12 03    07 06 22.9 +22 26 36   0.3249  1.2670   145.5    26.2    24.8
    ...
    2013 12 18    07 20 26.8 +24 09 37   0.1770  1.1496   157.6    19.0    23.0
    ...
    2013 12 26    07 33 01.5 +27 03 48   0.1053  1.0845   162.7    15.7    21.6
    ...
    2014 01 01    08 00 58.3 +33 44 57   0.05474 1.0350   160.2    18.8    20.2
    2014 01 02    08 12 08.2 +36 06 57   0.04672 1.0267   157.7    21.3    19.9
    2014 01 03    08 28 55.3 +39 18 58   0.03893 1.0185   153.9    25.1    19.6
    ...
    2014 01 09    17 16 40.7 +18 43 59   0.02327 0.9688    50.8   128.1    22.8
    ...
    2014 01 17    18 41 14.3 -10 45 33   0.08580 0.9037    20.3   157.9    30.2
    ...
    2014 02 01    19 05 02.2 -16 53 02   0.2241  0.7918    26.8   145.9    29.5
    
    A. U. Tomatic                (C) Copyright 2014 MPC           M.P.E.C. 2014-A09
    

    Read MPEC 2014-A08 Read MPEC 2014-A10


    MPEC number:

    Enter an MPEC number in one of the following forms:

    • 1997-B01 (the full form)
    • J97B01 (the packed version of the full form)
    • B01 (the abbreviated form)